FW6831 Weather Reports


Display with metric or nautical units.
time (UTC)temp
F
wind
direction
speed
MPH
gust
MPH
rain 1hr
in
rain 24hr
in
rain mn
in
humidity
%
barometer
mb
20260504234041 73 168 0.0 1.0 0.00 0.00 0.00 88 1018.5
20260504233542 72 135 0.0 3.0 0.00 0.00 0.00 89 1018.6
20260504233052 72 0 1.0 3.0 0.00 0.00 0.00 89 1018.6
20260504232542 72 226 1.0 3.0 0.00 0.00 0.00 90 1018.6
20260504232046 72 269 0.0 4.0 0.00 0.00 0.00 92 1018.7
20260504231553 71 137 0.0 4.0 0.00 0.00 0.00 92 1018.6
20260504231044 70 193 1.0 4.0 0.00 0.00 0.00 92 1018.7
20260504230546 71 179 1.0 4.0 0.00 0.00 0.00 92 1018.6
20260504230052 71 238 1.0 4.0 0.00 0.00 0.00 93 1018.6
20260504225544 70 216 0.0 2.0 0.00 0.00 0.00 94 1018.7
20260504225046 70 195 1.0 2.0 0.00 0.00 0.00 95 1018.6
20260504224552 70 183 0.0 2.0 0.00 0.00 0.00 96 1018.6
20260504224043 69 210 0.0 3.0 0.00 0.00 0.00 97 1018.7
20260504223543 69 0 1.0 3.0 0.00 0.00 0.00 97 1018.7
20260504223053 69 208 0.0 1.0 0.00 0.00 0.00 98 1018.6
20260504222547 69 273 0.0 0.0 0.00 0.00 0.00 99 1018.6
20260504222044 69 0 0.0 0.0 0.00 0.00 0.00 99 1018.6
20260504221548 68 0 0.0 0.0 0.00 0.00 0.00 99 1018.6
20260504221043 68 0 0.0 0.0 0.00 0.00 0.00 99 1018.7
20260504220543 68 0 0.0 0.0 0.00 0.00 0.00 99 1018.6
20260504220055 67 0 0.0 0.0 0.00 0.00 0.00 99 1018.5
20260504215544 66 0 0.0 0.0 0.00 0.01 0.00 99 1018.5
20260504215042 66 0 0.0 0.0 0.00 0.01 0.00 99 1018.5
20260504214557 65 0 0.0 0.0 0.00 0.01 0.00 99 1018.5
20260504214044 65 0 0.0 0.0 0.00 0.01 0.00 98 1018.5
20260504213543 64 0 0.0 0.0 0.00 0.01 0.00 98 1018.5
20260504213055 65 0 0.0 0.0 0.00 0.01 0.00 98 1018.5
20260504212542 64 0 0.0 0.0 0.00 0.01 0.00 98 1018.4
20260504212045 64 0 0.0 0.0 0.00 0.01 0.00 99 1018.5
20260504211548 64 0 0.0 0.0 0.00 0.01 0.00 99 1018.4
20260504211043 64 0 0.0 0.0 0.00 0.01 0.00 98 1018.4
20260504210543 64 0 0.0 0.0 0.00 0.01 0.00 98 1018.4
20260504205543 63 0 0.0 0.0 0.00 0.02 0.00 98 1018.3
20260504205041 64 0 0.0 0.0 0.00 0.02 0.00 98 1018.2
20260504204601 63 0 0.0 0.0 0.00 0.02 0.00 99 1018.2
20260504204041 63 0 0.0 0.0 0.00 0.02 0.00 98 1018.1
20260504203543 63 0 0.0 0.0 0.00 0.02 0.00 98 1018.1
20260504203122 63 0 0.0 0.0 0.00 0.02 0.00 98 1018.1
20260504202542 63 0 0.0 0.0 0.00 0.02 0.00 98 1018.1
20260504202044 63 0 0.0 0.0 0.00 0.02 0.00 98 1018.1
20260504201550 62 0 0.0 0.0 0.00 0.02 0.00 98 1018.2
20260504201043 62 0 0.0 0.0 0.00 0.02 0.00 98 1018.0
20260504200543 62 0 0.0 0.0 0.00 0.02 0.00 98 1018.0
20260504200051 62 0 0.0 0.0 0.00 0.02 0.00 98 1017.9
20260504195542 62 0 0.0 0.0 0.00 0.02 0.00 98 1018.0
20260504195043 63 0 0.0 0.0 0.00 0.02 0.00 98 1017.7
20260504194550 63 0 0.0 0.0 0.00 0.02 0.00 98 1017.8
20260504194042 63 0 0.0 0.0 0.00 0.02 0.00 98 1017.6
20260504193546 62 0 0.0 0.0 0.00 0.02 0.00 98 1017.7
20260504193058 62 0 0.0 0.0 0.00 0.02 0.00 98 1017.6
20260504192546 62 0 0.0 0.0 0.00 0.02 0.00 98 1017.5
20260504192044 62 0 0.0 0.0 0.00 0.02 0.00 98 1017.4
20260504191558 62 0 0.0 0.0 0.00 0.02 0.00 98 1017.3
20260504191043 62 0 0.0 0.0 0.00 0.02 0.00 98 1017.3
20260504190544 62 0 0.0 0.0 0.00 0.02 0.00 98 1017.5
20260504190054 62 0 0.0 0.0 0.00 0.02 0.00 98 1017.3
20260504185543 62 0 0.0 0.0 0.00 0.02 0.00 98 1017.3
20260504185043 63 0 0.0 0.0 0.00 0.02 0.00 98 1017.2
20260504184556 63 0 0.0 0.0 0.00 0.02 0.00 98 1017.4
20260504184043 63 0 0.0 0.0 0.00 0.02 0.00 98 1017.4
20260504183544 63 0 0.0 0.0 0.00 0.02 0.00 98 1017.1
20260504183058 62 0 0.0 0.0 0.00 0.02 0.00 98 1017.2
20260504182543 62 0 0.0 0.0 0.00 0.02 0.00 98 1017.3
20260504182043 62 0 0.0 0.0 0.00 0.02 0.00 98 1017.3
20260504181554 62 0 0.0 0.0 0.00 0.02 0.00 97 1017.1
20260504181041 62 0 0.0 0.0 0.00 0.02 0.00 98 1017.0
20260504180543 63 0 0.0 0.0 0.00 0.02 0.00 98 1016.9
20260504180106 63 0 0.0 0.0 0.00 0.02 0.00 98 1016.8
20260504175543 62 0 0.0 0.0 0.00 0.02 0.00 98 1016.8
20260504175043 63 0 0.0 0.0 0.00 0.02 0.00 98 1016.9
20260504174550 62 0 0.0 0.0 0.00 0.02 0.00 98 1016.8
20260504174043 62 0 0.0 0.0 0.00 0.02 0.00 98 1017.0
20260504173542 62 0 0.0 0.0 0.00 0.02 0.00 98 1017.0
20260504173105 62 0 0.0 0.0 0.00 0.02 0.00 98 1017.1
20260504172542 63 0 0.0 0.0 0.00 0.02 0.00 98 1017.2
20260504172042 62 0 0.0 0.0 0.00 0.02 0.00 98 1017.1
20260504171601 62 0 0.0 0.0 0.00 0.02 0.00 98 1017.2
20260504171043 62 0 0.0 0.0 0.00 0.01 0.00 98 1017.2
20260504170543 62 0 0.0 0.0 0.00 0.01 0.00 98 1017.1
20260504151044 63 0 0.0 0.0 0.00 0.01 0.00 97 1017.8
20260504150546 63 0 0.0 0.0 0.00 0.01 0.00 97 1017.8
20260504141044 64 0 0.0 0.0 0.00 0.01 0.00 97 1018.1
20260504140547 64 0 0.0 0.0 0.00 0.01 0.00 97 1018.1
20260504130545 65 0 0.0 0.0 0.00 0.01 0.01 97 1018.6
20260504110544 66 0 0.0 0.0 0.00 0.03 0.01 94 1019.3
20260504100544 69 0 0.0 1.0 0.00 0.03 0.01 92 1019.3
20260504081549 71 0 0.0 1.0 0.00 0.03 0.01 85 1018.0
20260504081043 72 0 0.0 4.0 0.00 0.03 0.01 85 1018.0
20260504080546 72 118 0.0 4.0 0.00 0.03 0.01 85 1017.9
20260504050541 79 116 2.0 5.0 0.00 0.03 0.01 69 1016.8
20260504045542 80 86 1.0 5.0 0.00 0.03 0.01 67 1016.8
20260504045041 81 0 1.0 5.0 0.00 0.03 0.01 68 1016.7
20260504044550 80 271 0.0 7.0 0.00 0.03 0.01 69 1016.6
20260504044042 80 269 2.0 7.0 0.00 0.03 0.01 69 1016.7
20260504043543 79 39 1.0 7.0 0.00 0.03 0.01 70 1016.7
20260504043055 78 173 2.0 10.0 0.00 0.03 0.01 70 1016.7
20260504042543 78 187 4.0 10.0 0.00 0.03 0.01 71 1016.6
20260504042043 79 182 2.0 5.0 0.00 0.03 0.01 70 1016.7
20260504041550 78 158 2.0 5.0 0.00 0.03 0.01 71 1016.7
20260504041042 78 97 1.0 5.0 0.00 0.03 0.01 71 1016.7
20260504040543 78 48 2.0 5.0 0.00 0.03 0.01 72 1016.8
20260504040054 78 82 0.0 5.0 0.00 0.03 0.01 72 1016.8
20260504035545 78 279 2.0 5.0 0.00 0.03 0.01 72 1017.0
20260504035044 78 221 1.0 6.0 0.00 0.03 0.01 73 1017.0
20260504034556 78 165 2.0 7.0 0.00 0.03 0.01 73 1016.9
20260504034048 78 94 3.0 7.0 0.00 0.03 0.01 72 1016.9
20260504033544 78 97 2.0 5.0 0.00 0.03 0.01 72 1017.0
20260504033049 78 178 2.0 7.0 0.00 0.03 0.01 73 1017.0
20260504032544 78 68 3.0 7.0 0.00 0.03 0.01 72 1017.0
20260504032044 77 122 3.0 6.0 0.00 0.03 0.01 72 1017.0
20260504031549 78 44 3.0 6.0 0.00 0.03 0.01 71 1016.9
20260504031043 78 98 2.0 5.0 0.00 0.03 0.01 70 1017.0
20260504030545 79 156 2.0 5.0 0.00 0.03 0.01 71 1017.0
20260504030051 78 330 1.0 4.0 0.00 0.03 0.01 72 1017.1
20260504025544 78 104 1.0 7.0 0.00 0.03 0.01 71 1017.1
20260504025043 78 122 2.0 7.0 0.00 0.03 0.01 71 1017.2
20260504024551 78 77 2.0 5.0 0.00 0.03 0.01 71 1017.3
20260504024044 77 106 2.0 3.0 0.00 0.03 0.01 74 1017.4
20260504023543 76 0 0.0 3.0 0.00 0.03 0.01 74 1017.4
20260504023049 76 150 0.0 2.0 0.00 0.03 0.01 76 1017.7
20260504022544 76 0 0.0 4.0 0.00 0.03 0.01 76 1017.7
20260504022044 76 0 0.0 6.0 0.00 0.03 0.01 77 1017.8
20260504021552 76 0 1.0 6.0 0.00 0.03 0.01 77 1017.9
20260504021044 76 180 2.0 4.0 0.00 0.03 0.01 76 1017.9
20260504020547 76 0 2.0 6.0 0.00 0.03 0.01 75 1018.0
20260504020058 76 0 1.0 6.0 0.00 0.03 0.01 78 1018.1
20260504015544 76 183 1.0 6.0 0.00 0.03 0.01 77 1018.0
20260504015044 75 194 0.0 4.0 0.00 0.03 0.01 79 1018.2
20260504014559 76 115 2.0 4.0 0.00 0.03 0.01 78 1018.3
20260504014045 76 0 0.0 3.0 0.00 0.03 0.01 77 1018.6
20260504013543 77 102 0.0 3.0 0.00 0.03 0.01 77 1018.5
20260504013108 77 0 1.0 3.0 0.00 0.03 0.01 78 1018.5
20260504012543 76 67 0.0 1.0 0.00 0.03 0.01 81 1018.6
20260504012046 75 0 0.0 2.0 0.00 0.03 0.01 81 1018.7
20260504011548 75 0 0.0 4.0 0.00 0.03 0.01 81 1018.9
20260504011042 75 0 1.0 4.0 0.00 0.03 0.01 81 1018.9
20260504010543 76 183 0.0 3.0 0.00 0.03 0.01 81 1019.1
20260504010050 75 0 0.0 3.0 0.00 0.03 0.01 82 1019.0
20260504005546 75 0 0.0 2.0 0.00 0.03 0.01 83 1019.1
20260504005043 74 0 0.0 4.0 0.00 0.03 0.01 84 1019.2
20260504004550 74 0 1.0 4.0 0.00 0.03 0.01 83 1019.4
20260504004043 74 0 1.0 6.0 0.00 0.03 0.01 84 1019.4
20260504003544 74 249 2.0 6.0 0.00 0.03 0.01 83 1019.5
20260504003048 74 115 0.0 5.0 0.00 0.03 0.01 83 1019.5
20260504002545 74 0 0.0 0.0 0.00 0.03 0.01 86 1019.6
20260504002043 73 0 0.0 4.0 0.00 0.03 0.01 86 1019.6
20260504001549 73 0 0.0 4.0 0.00 0.03 0.01 86 1019.7
20260504001045 72 0 0.0 3.0 0.00 0.03 0.01 86 1019.7
20260504000544 72 0 0.0 5.0 0.00 0.03 0.01 87 1019.8
20260504000053 72 174 0.0 5.0 0.00 0.03 0.01 88 1019.8
20260503235545 72 197 0.0 4.0 0.00 0.03 0.01 87 1019.9
20260503235043 72 181 1.0 2.0 0.00 0.03 0.01 88 1019.9
20260503234549 72 0 0.0 4.0 0.00 0.03 0.01 90 1019.9